FW1657 Weather Reports


time (UTC)temp
F
wind
direction
speed
knots
gust
knots
rain 1hr
in
rain 24hr
in
rain mn
in
humidity
%
barometer
mb
20260507191546 52 186 0.0 1.7 0.00 0.00 0.00 81 1016.4
20260507190046 52 186 0.0 2.6 0.00 0.00 0.00 80 1016.4
20260507184545 52 186 1.7 3.5 0.00 0.00 0.00 79 1016.5
20260507183045 53 186 1.7 3.5 0.00 0.00 0.00 78 1016.5
20260507181544 53 186 0.9 4.3 0.00 0.00 0.00 78 1016.4
20260507180045 53 153 2.6 4.3 0.00 0.00 0.00 76 1016.4
20260507174550 54 145 2.6 3.5 0.00 0.00 0.00 75 1016.3
20260507173048 54 129 0.9 2.6 0.00 0.00 0.00 74 1016.3
20260507171603 54 125 0.9 2.6 0.00 0.00 0.00 73 1016.2
20260507170042 54 125 0.9 3.5 0.00 0.00 0.00 70 1016.1
20260507164558 55 104 0.9 2.6 0.00 0.00 0.00 73 1016.0
20260507163040 55 102 0.0 0.9 0.00 0.00 0.00 73 1016.1
20260507161544 54 102 0.0 0.0 0.00 0.00 0.00 73 1016.1
20260507160042 54 102 0.9 2.6 0.00 0.00 0.00 72 1016.1
20260507154539 55 102 0.0 1.7 0.00 0.00 0.00 71 1016.1
20260507153044 55 102 1.7 3.5 0.00 0.00 0.00 73 1016.1
20260507151541 55 102 0.9 3.5 0.00 0.00 0.00 72 1016.1
20260507150037 55 102 0.0 2.6 0.00 0.00 0.00 71 1016.2
20260507144536 55 102 0.9 3.5 0.00 0.00 0.00 69 1016.3
20260507143038 55 100 2.6 3.5 0.00 0.00 0.00 70 1016.1
20260507141533 55 98 1.7 3.5 0.00 0.00 0.00 71 1016.1
20260507140032 55 93 1.7 3.5 0.00 0.00 0.00 72 1016.2
20260507134542 55 83 2.6 3.5 0.00 0.00 0.00 71 1016.3
20260507133031 55 33 0.0 1.7 0.00 0.00 0.00 70 1016.2
20260507131536 55 13 0.0 0.0 0.00 0.00 0.00 70 1016.1
20260507130032 55 13 0.0 0.0 0.00 0.00 0.00 73 1016.3
20260507124532 55 13 0.0 3.5 0.00 0.00 0.00 69 1016.3
20260507123029 55 295 0.0 1.7 0.00 0.00 0.00 70 1016.2
20260507121527 55 346 0.9 4.3 0.00 0.00 0.00 72 1016.3
20260507120025 55 260 1.7 6.1 0.00 0.00 0.00 72 1016.4
20260507114527 54 262 0.9 4.3 0.00 0.00 0.00 74 1016.4
20260507113020 54 186 0.9 3.5 0.00 0.00 0.00 74 1016.5
20260507111522 54 287 2.6 5.2 0.00 0.00 0.00 75 1016.5
20260507110018 53 196 1.7 6.1 0.00 0.00 0.00 76 1016.4
20260507104516 53 279 2.6 6.1 0.00 0.00 0.00 76 1016.4
20260507103016 53 253 1.7 6.1 0.00 0.00 0.00 75 1016.4
20260507101519 53 316 4.3 7.8 0.00 0.00 0.00 76 1016.3
20260507100013 53 314 2.6 5.2 0.00 0.00 0.00 76 1016.2
20260507094512 54 244 0.0 7.0 0.00 0.00 0.00 74 1016.0
20260507093009 53 149 1.7 7.0 0.00 0.00 0.00 76 1015.9
20260507091504 51 261 3.5 7.8 0.00 0.00 0.00 80 1015.8
20260507090006 50 217 2.6 5.2 0.00 0.01 0.00 82 1015.8
20260507084502 50 181 3.5 8.7 0.00 0.01 0.00 82 1015.4
20260507083003 50 200 2.6 7.0 0.00 0.01 0.00 84 1015.5
20260507081604 50 153 2.6 5.2 0.00 0.01 0.00 83 1015.3
20260507080058 50 200 4.3 8.7 0.00 0.01 0.00 83 1015.1
20260507074559 51 196 5.2 10.4 0.00 0.03 0.00 82 1015.1
20260507073053 49 167 3.5 7.0 0.00 0.03 0.00 87 1014.8
20260507071556 48 201 3.5 7.0 0.00 0.03 0.00 87 1014.9
20260507070100 49 171 3.5 7.0 0.00 0.03 0.00 89 1014.8
20260507064547 47 175 3.5 7.8 0.00 0.04 0.00 91 1014.6
20260507063043 46 159 3.5 7.8 0.00 0.04 0.00 94 1014.5
20260507061542 45 209 2.6 4.3 0.00 0.04 0.00 94 1014.6
20260507060053 44 104 0.0 1.7 0.00 0.04 0.00 94 1014.5
20260507054541 43 104 0.0 0.9 0.00 0.05 0.00 94 1014.2
20260507053045 43 104 0.9 3.5 0.00 0.05 0.00 94 1014.1
20260507051541 43 102 0.0 2.6 0.00 0.05 0.00 94 1013.9
20260507050041 43 102 0.9 2.6 0.00 0.05 0.00 94 1013.7
20260507044534 42 102 1.7 3.5 0.00 0.05 0.00 94 1013.5
20260507043032 42 85 0.0 0.0 0.00 0.05 0.00 93 1013.3
20260507041532 42 85 0.0 0.0 0.00 0.05 0.00 93 1013.1
20260507040030 42 85 0.0 0.0 0.00 0.05 0.00 93 1013.0
20260507034548 41 85 0.9 2.6 0.00 0.05 0.00 93 1012.9
20260507033031 41 85 0.9 3.5 0.00 0.05 0.00 93 1012.9
20260507031526 42 83 0.0 2.6 0.00 0.05 0.00 92 1012.8
20260507030025 42 84 0.9 1.7 0.00 0.05 0.00 92 1012.7
20260507024538 42 84 1.7 3.5 0.00 0.05 0.00 92 1012.8
20260507023020 43 165 0.0 0.0 0.00 0.05 0.00 91 1012.6
20260507021520 43 165 0.9 3.5 0.00 0.05 0.00 91 1012.6
20260507020017 43 169 1.7 5.2 0.00 0.05 0.00 91 1012.4
20260507014528 44 160 2.6 4.3 0.00 0.05 0.00 91 1012.4
20260507013011 44 127 0.0 0.0 0.00 0.05 0.00 91 1012.4
20260507011521 44 127 0.0 0.0 0.00 0.05 0.00 91 1012.3
20260507010016 44 127 0.0 0.9 0.00 0.05 0.00 91 1012.2
20260507004508 44 127 0.0 3.5 0.00 0.05 0.00 91 1012.2
20260507003015 44 166 0.0 0.0 0.00 0.05 0.00 91 1012.0
20260507001507 44 166 0.0 3.5 0.00 0.05 0.00 90 1012.1
20260507000004 44 170 2.6 5.2 0.00 0.05 0.00 90 1012.1
20260506234502 45 147 2.6 5.2 0.00 0.05 0.00 90 1012.0
20260506233109 45 149 1.7 4.3 0.00 0.05 0.00 90 1011.9
20260506231559 45 148 1.7 5.2 0.00 0.05 0.00 91 1011.9
20260506230056 45 124 1.7 3.5 0.00 0.05 0.00 91 1011.7
20260506224555 46 145 1.7 2.6 0.00 0.06 0.00 91 1011.5
20260506223058 46 145 0.0 2.6 0.00 0.06 0.00 90 1011.6
20260506221550 46 144 1.7 3.5 0.00 0.06 0.00 90 1011.3
20260506220051 46 165 2.6 4.3 0.00 0.06 0.00 90 1011.1
20260506214544 46 136 2.6 5.2 0.00 0.06 0.06 90 1011.1
20260506213043 46 136 2.6 7.0 0.00 0.06 0.06 90 1011.0
20260506211550 47 134 2.6 7.0 0.00 0.06 0.06 89 1010.9
20260506210041 47 146 1.7 5.2 0.00 0.06 0.06 89 1010.9
20260506204539 47 154 2.6 5.2 0.00 0.06 0.06 88 1010.7
20260506203038 47 180 2.6 5.2 0.00 0.06 0.06 88 1010.8
20260506201537 47 165 2.6 5.2 0.00 0.06 0.06 88 1010.6
20260506200035 47 165 1.7 3.5 0.00 0.06 0.06 87 1010.6
20260506194537 48 162 0.9 4.3 0.00 0.11 0.06 87 1010.4
20260506193034 48 152 1.7 4.3 0.00 0.11 0.06 87 1010.2